This is the latest recevied weather packets stored in our database for station/object KF7PIZ. If no packets are shown the sender has not sent any weather packets the latest 10 day(s).
| Time | Temp. | Humidity | Pressure | Rain* | Wind** | Luminosity | Snow |
|---|---|---|---|---|---|---|---|
| 1777590113 | 24.44° C | 18% | 1016.6 hPa | 0 mm | - | 59 W/m² | - |
| 1777589809 | 23.89° C | 23% | 1016.8 hPa | 0 mm | - | 57 W/m² | - |
| 1777589504 | 25° C | 19% | 1016.8 hPa | 0 mm | - | 68 W/m² | - |
| 1777589204 | 24.44° C | 19% | 1016.6 hPa | 0 mm | - | 69 W/m² | - |
| 1777588900 | 24.44° C | 24% | 1016.9 hPa | 0 mm | - | 104 W/m² | - |
| 1777588597 | 23.89° C | 23% | 1016.8 hPa | 0 mm | - | 86 W/m² | - |
| 1777588297 | 23.33° C | 24% | 1017 hPa | 0 mm | - | 181 W/m² | - |
| 1777587992 | 23.89° C | 21% | 1017.1 hPa | 0 mm | - | 94 W/m² | - |
| 1777587689 | 24.44° C | 23% | 1017.2 hPa | 0 mm | - | 100 W/m² | - |
| 1777587388 | 24.44° C | 21% | 1017 hPa | 0 mm | - | 183 W/m² | - |
| 1777587085 | 24.44° C | 23% | 1017.2 hPa | 0 mm | - | 238 W/m² | - |
| 1777586781 | 23.89° C | 21% | 1017.4 hPa | 0 mm | - | 129 W/m² | - |
| 1777586476 | 23.89° C | 25% | 1017.3 hPa | 0 mm | - | 167 W/m² | - |
| 1777586171 | 24.44° C | 22% | 1017.5 hPa | 0 mm | - | 192 W/m² | - |
| 1777585869 | 24.44° C | 22% | 1017.7 hPa | 0 mm | - | 177 W/m² | - |
| 1777585564 | 25° C | 21% | 1017.5 hPa | 0 mm | - | 250 W/m² | - |
| 1777585260 | 24.44° C | 20% | 1017.7 hPa | 0 mm | - | 525 W/m² | - |
| 1777584955 | 25° C | 21% | 1017.5 hPa | 0 mm | - | 320 W/m² | - |
| 1777584653 | 25° C | 21% | 1017.7 hPa | 0 mm | - | 415 W/m² | - |
| 1777584349 | 25° C | 20% | 1017.4 hPa | 0 mm | - | 658 W/m² | - |
| 1777584045 | 25.56° C | 22% | 1017.5 hPa | 0 mm | - | 352 W/m² | - |
| 1777583740 | 25.56° C | 24% | 1017.7 hPa | 0 mm | - | 511 W/m² | - |
| 1777583439 | 25° C | 23% | 1017.5 hPa | 0 mm | - | 452 W/m² | - |
| 1777583139 | 25.56° C | 20% | 1017.8 hPa | 0 mm | - | 270 W/m² | - |
| 1777582835 | 26.11° C | 19% | 1018.1 hPa | 0 mm | - | 717 W/m² | - |
* Rain latest hour (hover to see other rain measurements)
** Current wind speed in m/s (hover to see current wind gust speed)